When you browse on this site, cookies collect data to enhance your experience and personalize the content and advertising you see.
Visit our Privacy Policy to learn more. By continuing to use the site, you agree to this use of cookies and data.
  • Em Portugal
  • Lista de países
  • Para 7 dias
  • Temperatura da água
  • Mapas de satélite
  • Mapa do tempo
  • Widgets de tempo
  • user-avatar
    Iniciar Sessão

    Previsão horária em Belkovo

    Hoje, 23 Fevereiro, Sábado

    Tempo Temperatura Precipitação Vento Pressão Humidade
    00:00 -9°C° 0 mm 2 m/s 772 mmHg 80%
    01:00 -9°C° 0 mm 2 m/s 772 mmHg 79%
    02:00 -9°C° 0 mm 2 m/s 772 mmHg 76%
    03:00 -9°C° 0 mm 3 m/s 771 mmHg 73%
    04:00 -8°C° 0 mm 3 m/s 771 mmHg 69%
    05:00 -8°C° 0 mm 3 m/s 770 mmHg 66%
    06:00 -8°C° 0 mm 4 m/s 769 mmHg 68%
    07:00 -8°C° 0 mm 4 m/s 769 mmHg 70%
    08:00 -9°C° 0 mm 6 m/s 768 mmHg 73%
    09:00 -8°C° 0.6 mm 6 m/s 768 mmHg 76%
    10:00 -8°C° 0.6 mm 6 m/s 767 mmHg 80%
    11:00 -6°C° 0.6 mm 6 m/s 766 mmHg 84%
    12:00 -5°C° 0.1 mm 6 m/s 766 mmHg 84%
    13:00 -4°C° 0.1 mm 6 m/s 765 mmHg 84%
    14:00 -2°C° 0 mm 7 m/s 764 mmHg 84%
    15:00 -2°C° 0 mm 7 m/s 764 mmHg 86%
    16:00 -2°C° 0 mm 6 m/s 763 mmHg 87%
    17:00 -1°C° 0 mm 5 m/s 763 mmHg 88%
    18:00 -1°C° 0 mm 5 m/s 763 mmHg 89%
    19:00 0°C° 0 mm 5 m/s 763 mmHg 89%
    20:00 0°C° 0 mm 5 m/s 763 mmHg 90%
    21:00 -1°C° 0 mm 4 m/s 763 mmHg 91%
    22:00 -1°C° 0 mm 4 m/s 763 mmHg 92%
    23:00 -1°C° 0 mm 4 m/s 763 mmHg 92%

    Amanhã, 24 Fevereiro, Domingo

    Tempo Temperatura Precipitação Vento Pressão Humidade
    00:00 -1°C° 0 mm 4 m/s 763 mmHg 93%
    01:00 0°C° 0 mm 3 m/s 763 mmHg 93%
    02:00 0°C° 0 mm 3 m/s 763 mmHg 94%
    03:00 0°C° 0 mm 3 m/s 763 mmHg 94%
    04:00 0°C° 0 mm 3 m/s 763 mmHg 95%
    05:00 0°C° 0 mm 3 m/s 762 mmHg 95%
    06:00 0°C° 0 mm 3 m/s 762 mmHg 95%
    07:00 0°C° 0 mm 3 m/s 762 mmHg 95%
    08:00 0°C° 0 mm 3 m/s 762 mmHg 94%
    09:00 0°C° 0 mm 3 m/s 762 mmHg 94%
    10:00 +1°C° 0 mm 3 m/s 762 mmHg 94%
    11:00 +1°C° 0 mm 3 m/s 762 mmHg 94%
    12:00 +2°C° 0 mm 3 m/s 761 mmHg 94%
    13:00 +2°C° 0 mm 3 m/s 761 mmHg 94%
    14:00 +1°C° 0 mm 4 m/s 760 mmHg 93%
    15:00 +1°C° 0 mm 4 m/s 760 mmHg 93%
    16:00 +1°C° 0 mm 4 m/s 759 mmHg 92%
    17:00 0°C° 0 mm 4 m/s 759 mmHg 91%
    18:00 0°C° 0 mm 4 m/s 759 mmHg 91%
    19:00 0°C° 0 mm 4 m/s 758 mmHg 91%
    20:00 0°C° 0 mm 5 m/s 758 mmHg 91%
    21:00 0°C° 0 mm 4 m/s 758 mmHg 91%
    22:00 0°C° 0 mm 4 m/s 758 mmHg 91%
    23:00 0°C° 0 mm 4 m/s 758 mmHg 91%

    Depois de amanhã, 25 Fevereiro, Segunda-feira

    Tempo Temperatura Precipitação Vento Pressão Humidade
    00:00 -1°C° 0 mm 5 m/s 758 mmHg 88%
    01:00 -1°C° 0 mm 5 m/s 758 mmHg 86%
    02:00 -1°C° 0 mm 5 m/s 758 mmHg 84%
    03:00 -1°C° 0 mm 5 m/s 758 mmHg 83%
    04:00 -1°C° 0 mm 5 m/s 758 mmHg 83%
    05:00 -1°C° 0 mm 5 m/s 757 mmHg 82%
    06:00 -1°C° 0 mm 5 m/s 757 mmHg 81%
    07:00 -1°C° 0 mm 5 m/s 757 mmHg 81%
    08:00 -1°C° 0 mm 5 m/s 756 mmHg 80%
    09:00 -1°C° 0 mm 6 m/s 756 mmHg 77%
    10:00 +1°C° 0 mm 6 m/s 756 mmHg 75%
    11:00 +1°C° 0 mm 6 m/s 756 mmHg 72%
    12:00 +2°C° 0 mm 6 m/s 756 mmHg 72%
    13:00 +2°C° 0 mm 6 m/s 755 mmHg 71%
    14:00 +2°C° 0 mm 5 m/s 755 mmHg 71%
    15:00 +2°C° 0 mm 5 m/s 755 mmHg 73%
    16:00 +1°C° 0 mm 5 m/s 755 mmHg 75%
    17:00 +1°C° 0 mm 5 m/s 755 mmHg 77%
    18:00 0°C° 0 mm 5 m/s 756 mmHg 79%
    19:00 0°C° 0 mm 5 m/s 756 mmHg 81%
    20:00 -1°C° 0 mm 5 m/s 756 mmHg 83%
    21:00 -1°C° 0 mm 4 m/s 756 mmHg 85%
    22:00 -1°C° 0 mm 4 m/s 756 mmHg 86%
    23:00 -2°C° 0 mm 4 m/s 756 mmHg 88%

    26 Fevereiro, Terça-feira

    Tempo Temperatura Precipitação Vento Pressão Humidade
    00:00 -2°C° 0 mm 4 m/s 755 mmHg 87%
    01:00 -2°C° 0 mm 5 m/s 755 mmHg 87%
    02:00 -2°C° 0 mm 5 m/s 755 mmHg 87%
    03:00 -2°C° 0.3 mm 5 m/s 754 mmHg 86%
    04:00 -1°C° 0.3 mm 5 m/s 753 mmHg 86%
    05:00 0°C° 0.3 mm 4 m/s 752 mmHg 85%
    06:00 -1°C° 0.1 mm 5 m/s 752 mmHg 86%
    07:00 -1°C° 0.1 mm 5 m/s 752 mmHg 86%
    08:00 -1°C° 0.1 mm 5 m/s 752 mmHg 87%
    09:00 0°C° 0.1 mm 5 m/s 752 mmHg 87%
    10:00 0°C° 0.1 mm 4 m/s 753 mmHg 87%
    11:00 0°C° 0.1 mm 4 m/s 753 mmHg 87%
    12:00 0°C° 0 mm 4 m/s 754 mmHg 86%
    13:00 0°C° 0 mm 4 m/s 754 mmHg 85%
    14:00 0°C° 0 mm 5 m/s 755 mmHg 84%
    15:00 0°C° 0 mm 4 m/s 755 mmHg 85%
    16:00 0°C° 0 mm 4 m/s 756 mmHg 85%
    17:00 -1°C° 0 mm 4 m/s 756 mmHg 86%
    18:00 -1°C° 0 mm 4 m/s 757 mmHg 88%
    19:00 -1°C° 0 mm 3 m/s 757 mmHg 90%
    20:00 -1°C° 0 mm 3 m/s 758 mmHg 92%
    21:00 -2°C° 0 mm 2 m/s 758 mmHg 93%
    22:00 -2°C° 0 mm 2 m/s 758 mmHg 94%
    23:00 -3°C° 0 mm 2 m/s 759 mmHg 95%

    27 Fevereiro, Quarta-feira

    Tempo Temperatura Precipitação Vento Pressão Humidade
    00:00 -3°C° 0 mm 2 m/s 759 mmHg 95%
    01:00 -1°C° 0 mm 1 m/s 758 mmHg 95%
    02:00 -1°C° 0 mm 1 m/s 758 mmHg 95%
    03:00 -3°C° 0 mm 2 m/s 758 mmHg 95%
    04:00 -2°C° 0 mm 2 m/s 757 mmHg 95%
    05:00 -2°C° 0 mm 2 m/s 757 mmHg 95%
    06:00 -1°C° 0.1 mm 3 m/s 756 mmHg 93%
    07:00 -1°C° 0.1 mm 3 m/s 756 mmHg 91%
    08:00 -1°C° 0.1 mm 4 m/s 755 mmHg 89%
    09:00 -1°C° 0 mm 4 m/s 754 mmHg 88%
    10:00 0°C° 0 mm 4 m/s 754 mmHg 87%
    11:00 0°C° 0 mm 5 m/s 753 mmHg 86%
    12:00 +1°C° 0 mm 4 m/s 753 mmHg 83%
    13:00 +1°C° 0 mm 4 m/s 753 mmHg 80%
    14:00 +3°C° 0 mm 4 m/s 753 mmHg 77%
    15:00 +1°C° 0 mm 4 m/s 752 mmHg 80%
    16:00 +2°C° 0 mm 3 m/s 752 mmHg 83%
    17:00 +1°C° 0 mm 3 m/s 752 mmHg 86%
    18:00 +1°C° 0 mm 3 m/s 752 mmHg 88%
    19:00 0°C° 0 mm 3 m/s 751 mmHg 90%
    20:00 0°C° 0 mm 3 m/s 751 mmHg 91%
    21:00 -1°C° 0 mm 3 m/s 750 mmHg 91%
    22:00 -1°C° 0 mm 3 m/s 749 mmHg 92%
    23:00 -1°C° 0 mm 3 m/s 748 mmHg 92%

    28 Fevereiro, Quinta-feira

    Tempo Temperatura Precipitação Vento Pressão Humidade
    00:00 -1°C° 0 mm 3 m/s 748 mmHg 90%
    01:00 -1°C° 0 mm 3 m/s 747 mmHg 88%
    02:00 -1°C° 0 mm 4 m/s 746 mmHg 85%
    03:00 0°C° 0.4 mm 3 m/s 744 mmHg 85%
    04:00 0°C° 0.4 mm 3 m/s 743 mmHg 85%
    05:00 0°C° 0.4 mm 3 m/s 741 mmHg 84%
    06:00 0°C° 0.4 mm 3 m/s 740 mmHg 85%
    07:00 -1°C° 0.4 mm 4 m/s 739 mmHg 85%
    08:00 -1°C° 0.4 mm 4 m/s 737 mmHg 86%
    09:00 -1°C° 0.1 mm 4 m/s 736 mmHg 87%
    10:00 0°C° 0.1 mm 4 m/s 735 mmHg 89%
    11:00 0°C° 0.1 mm 4 m/s 735 mmHg 91%
    12:00 +1°C° 0.1 mm 5 m/s 734 mmHg 88%
    13:00 +1°C° 0.1 mm 5 m/s 734 mmHg 85%
    14:00 +2°C° 0.1 mm 5 m/s 734 mmHg 82%
    15:00 +1°C° 0.1 mm 5 m/s 733 mmHg 82%
    16:00 +1°C° 0.1 mm 5 m/s 733 mmHg 82%
    17:00 +1°C° 0.1 mm 5 m/s 733 mmHg 83%
    18:00 0°C° 0.3 mm 5 m/s 734 mmHg 84%
    19:00 0°C° 0.3 mm 5 m/s 734 mmHg 86%
    20:00 0°C° 0.3 mm 5 m/s 734 mmHg 88%
    21:00 -1°C° 0.1 mm 5 m/s 735 mmHg 87%
    22:00 -2°C° 0.1 mm 6 m/s 735 mmHg 87%
    23:00 -2°C° 0.1 mm 6 m/s 736 mmHg 87%
    Mostrar mais